Time,TemperatureF,DewpointF,PressureIn,WindDirection,WindDirectionDegrees,WindSpeedMPH,WindSpeedGustMPH,Humidity,HourlyPrecipIn,Conditions,Clouds,dailyrainin,SoftwareType,DateUTC
2013-02-12 00:00:00,39.1,38.8,29.65,SE,141,0.0,0.0,99,0.00,,,0.70,VWS V14.00,2013-02-12 05:00:00,
2013-02-12 00:05:00,39.6,39.6,29.65,SW,226,0.0,1.0,100,0.00,,,0.00,VWS V14.00,2013-02-12 05:05:00,
2013-02-12 00:10:00,39.8,39.8,29.65,West,281,0.0,1.0,100,0.00,,,0.00,VWS V14.00,2013-02-12 05:10:00,
2013-02-12 00:15:00,39.7,39.7,29.65,West,275,0.0,0.0,100,0.00,,,0.00,VWS V14.00,2013-02-12 05:15:00,
2013-02-12 00:20:00,39.6,39.3,29.65,West,265,0.0,0.0,99,0.00,,,0.00,VWS V14.00,2013-02-12 05:20:00,
2013-02-12 00:25:00,39.6,39.6,29.65,South,175,1.0,2.0,100,0.00,,,0.00,VWS V14.00,2013-02-12 05:25:00,
2013-02-12 00:30:00,39.3,39.0,29.66,SW,215,2.0,2.0,99,0.00,,,0.00,VWS V14.00,2013-02-12 05:30:00,
2013-02-12 00:35:00,39.3,39.0,29.66,NW,323,0.0,3.0,99,0.00,,,0.00,VWS V14.00,2013-02-12 05:35:00,
2013-02-12 00:40:00,39.3,39.0,29.66,SSW,211,0.0,2.0,99,0.00,,,0.00,VWS V14.00,2013-02-12 05:40:00,
2013-02-12 00:45:00,39.4,39.4,29.66,SSW,199,0.0,0.0,100,0.00,,,0.00,VWS V14.00,2013-02-12 05:45:00,
2013-02-12 00:50:00,39.5,39.5,29.66,West,263,1.0,3.0,100,0.00,,,0.00,VWS V14.00,2013-02-12 05:50:00,
2013-02-12 00:55:00,39.2,38.9,29.66,South,190,2.0,3.0,99,0.00,,,0.00,VWS V14.00,2013-02-12 05:55:00,
2013-02-12 01:00:00,38.5,38.2,29.66,South,191,0.0,0.0,99,0.00,,,0.00,VWS V14.00,2013-02-12 06:00:00,
2013-02-12 01:05:00,38.1,37.8,29.66,SSW,209,0.0,2.0,99,0.00,,,0.00,VWS V14.00,2013-02-12 06:05:00,
2013-02-12 01:10:00,38.2,37.9,29.66,SSW,209,0.0,3.0,99,0.00,,,0.00,VWS V14.00,2013-02-12 06:10:00,
2013-02-12 01:15:00,38.1,37.8,29.65,SSW,205,1.0,2.0,99,0.00,,,0.00,VWS V14.00,2013-02-12 06:15:00,
2013-02-12 01:20:00,38.1,37.8,29.65,SSW,204,1.0,2.0,99,0.00,,,0.00,VWS V14.00,2013-02-12 06:20:00,
2013-02-12 01:24:00,37.9,37.6,29.66,South,180,3.0,3.0,99,0.00,,,0.00,VWS V14.00,2013-02-12 06:24:00,
2013-02-12 01:29:00,37.8,37.5,29.65,South,186,2.0,2.0,99,0.00,,,0.00,VWS V14.00,2013-02-12 06:29:00,
2013-02-12 01:34:00,37.6,37.3,29.65,SW,219,2.0,4.0,99,0.00,,,0.00,VWS V14.00,2013-02-12 06:34:00,
2013-02-12 01:39:00,37.4,37.2,29.65,SSW,203,0.0,3.0,99,0.00,,,0.00,VWS V14.00,2013-02-12 06:39:00,
2013-02-12 01:44:00,37.2,37.0,29.65,West,261,0.0,2.0,99,0.00,,,0.00,VWS V14.00,2013-02-12 06:44:00,
2013-02-12 01:49:00,37.1,36.8,29.66,SSE,162,0.0,0.0,99,0.00,,,0.00,VWS V14.00,2013-02-12 06:49:00,
2013-02-12 01:54:00,36.7,36.5,29.66,WNW,298,0.0,0.0,99,0.00,,,0.00,VWS V14.00,2013-02-12 06:54:00,
2013-02-12 01:59:00,36.3,36.0,29.67,NW,314,0.0,0.0,99,0.00,,,0.00,VWS V14.00,2013-02-12 06:59:00,
2013-02-12 02:04:00,36.1,35.8,29.67,SSW,211,0.0,1.0,99,0.00,,,0.00,VWS V14.00,2013-02-12 07:04:00,
2013-02-12 02:09:00,36.0,35.8,29.67,SW,236,0.0,2.0,99,0.00,,,0.00,VWS V14.00,2013-02-12 07:09:00,
2013-02-12 02:14:00,36.7,36.5,29.67,West,271,0.0,2.0,99,0.00,,,0.00,VWS V14.00,2013-02-12 07:14:00,
2013-02-12 02:19:00,36.5,36.2,29.68,NNW,336,1.0,1.0,99,0.00,,,0.00,VWS V14.00,2013-02-12 07:19:00,
2013-02-12 02:24:00,36.7,36.5,29.67,NW,318,0.0,2.0,99,0.00,,,0.00,VWS V14.00,2013-02-12 07:24:00,
2013-02-12 02:29:00,36.8,36.5,29.67,NW,320,0.0,2.0,99,0.00,,,0.00,VWS V14.00,2013-02-12 07:29:00,
2013-02-12 02:34:00,36.9,36.7,29.68,NNW,348,4.0,5.0,99,0.00,,,0.00,VWS V14.00,2013-02-12 07:34:00,
2013-02-12 02:39:00,36.9,36.7,29.68,NW,324,0.0,1.0,99,0.00,,,0.00,VWS V14.00,2013-02-12 07:39:00,
2013-02-12 02:44:00,37.1,36.8,29.68,West,261,1.0,1.0,99,0.00,,,0.00,VWS V14.00,2013-02-12 07:44:00,
2013-02-12 02:49:00,37.1,36.8,29.68,NW,324,2.0,2.0,99,0.00,,,0.00,VWS V14.00,2013-02-12 07:49:00,
2013-02-12 02:54:00,37.1,36.8,29.68,NW,313,2.0,4.0,99,0.00,,,0.00,VWS V14.00,2013-02-12 07:54:00,
2013-02-12 02:59:00,37.3,37.0,29.67,WNW,283,0.0,1.0,99,0.00,,,0.00,VWS V14.00,2013-02-12 07:59:00,
2013-02-12 03:04:00,37.2,37.0,29.68,SSW,197,0.0,0.0,99,0.00,,,0.00,VWS V14.00,2013-02-12 08:04:00,
2013-02-12 03:09:00,37.0,36.8,29.68,SSW,196,1.0,1.0,99,0.00,,,0.00,VWS V14.00,2013-02-12 08:09:00,
2013-02-12 03:14:00,36.9,36.7,29.68,WSW,252,0.0,0.0,99,0.00,,,0.00,VWS V14.00,2013-02-12 08:14:00,
2013-02-12 03:19:00,36.8,36.5,29.68,West,259,1.0,1.0,99,0.00,,,0.00,VWS V14.00,2013-02-12 08:19:00,
2013-02-12 03:24:00,36.5,36.2,29.69,SW,221,0.0,1.0,99,0.00,,,0.00,VWS V14.00,2013-02-12 08:24:00,
2013-02-12 03:29:00,36.3,36.0,29.68,SW,232,0.0,0.0,99,0.00,,,0.00,VWS V14.00,2013-02-12 08:29:00,
2013-02-12 03:34:00,36.3,36.0,29.68,SW,232,0.0,0.0,99,0.00,,,0.00,VWS V14.00,2013-02-12 08:34:00,
2013-02-12 03:39:00,36.1,35.8,29.68,SW,232,0.0,0.0,99,0.00,,,0.00,VWS V14.00,2013-02-12 08:39:00,
2013-02-12 03:44:00,36.3,36.0,29.68,SW,231,0.0,0.0,99,0.00,,,0.00,VWS V14.00,2013-02-12 08:44:00,
2013-02-12 03:49:00,36.0,35.8,29.69,SW,232,0.0,0.0,99,0.00,,,0.00,VWS V14.00,2013-02-12 08:49:00,
2013-02-12 03:54:00,35.8,35.5,29.69,SW,232,0.0,0.0,99,0.00,,,0.00,VWS V14.00,2013-02-12 08:54:00,
2013-02-12 03:59:00,35.6,35.3,29.69,SW,232,0.0,0.0,99,0.00,,,0.00,VWS V14.00,2013-02-12 08:59:00,
2013-02-12 04:04:00,35.6,35.3,29.69,SW,231,0.0,0.0,99,0.00,,OVC050,0.00,VWS V14.00,2013-02-12 09:04:00,
2013-02-12 04:09:00,35.7,35.5,29.69,SW,232,1.0,1.0,99,0.00,,OVC050,0.00,VWS V14.00,2013-02-12 09:09:00,
2013-02-12 04:14:00,35.6,35.3,29.69,SW,218,0.0,1.0,99,0.00,,OVC050,0.00,VWS V14.00,2013-02-12 09:14:00,
2013-02-12 04:19:00,35.5,35.2,29.69,SSW,213,0.0,0.0,99,0.00,,OVC050,0.00,VWS V14.00,2013-02-12 09:19:00,
2013-02-12 04:24:00,35.0,34.8,29.70,SW,227,0.0,0.0,99,0.00,,OVC050,0.00,VWS V14.00,2013-02-12 09:24:00,
2013-02-12 04:29:00,35.1,34.8,29.70,SW,228,0.0,0.0,99,0.00,,OVC050,0.00,VWS V14.00,2013-02-12 09:29:00,
2013-02-12 04:34:00,35.0,34.8,29.70,SSW,211,1.0,1.0,99,0.00,,OVC050,0.00,VWS V14.00,2013-02-12 09:34:00,
2013-02-12 04:39:00,35.0,34.8,29.70,SSW,211,0.0,1.0,99,0.00,,OVC050,0.00,VWS V14.00,2013-02-12 09:39:00,
2013-02-12 04:44:00,35.0,34.8,29.71,WSW,250,1.0,2.0,99,0.00,,OVC050,0.00,VWS V14.00,2013-02-12 09:44:00,
2013-02-12 04:49:00,35.4,35.2,29.70,WNW,286,2.0,3.0,99,0.00,,OVC050,0.00,VWS V14.00,2013-02-12 09:49:00,
2013-02-12 04:54:00,35.6,35.3,29.71,SW,225,0.0,1.0,99,0.00,,OVC050,0.00,VWS V14.00,2013-02-12 09:54:00,
2013-02-12 04:59:00,35.6,35.3,29.70,SW,219,0.0,0.0,99,0.00,,OVC050,0.00,VWS V14.00,2013-02-12 09:59:00,
2013-02-12 05:04:00,35.6,35.3,29.70,WSW,252,0.0,1.0,99,0.00,,OVC055,0.00,VWS V14.00,2013-02-12 10:04:00,
2013-02-12 05:09:00,35.6,35.3,29.70,WSW,249,0.0,0.0,99,0.00,,OVC055,0.00,VWS V14.00,2013-02-12 10:09:00,
2013-02-12 05:14:00,35.6,35.3,29.70,WSW,249,0.0,0.0,99,0.00,,OVC055,0.00,VWS V14.00,2013-02-12 10:14:00,
2013-02-12 05:19:00,35.6,35.3,29.70,WNW,288,2.0,2.0,99,0.00,,OVC055,0.00,VWS V14.00,2013-02-12 10:19:00,
2013-02-12 05:24:00,35.5,35.2,29.70,WNW,288,0.0,0.0,99,0.00,,OVC055,0.00,VWS V14.00,2013-02-12 10:24:00,
2013-02-12 05:29:00,35.2,35.0,29.70,WNW,288,0.0,0.0,99,0.00,,OVC055,0.00,VWS V14.00,2013-02-12 10:29:00,
2013-02-12 05:34:00,35.1,34.8,29.70,West,272,0.0,0.0,99,0.00,,OVC055,0.00,VWS V14.00,2013-02-12 10:34:00,
2013-02-12 05:39:00,35.0,34.8,29.71,WSW,252,0.0,1.0,99,0.00,,OVC055,0.00,VWS V14.00,2013-02-12 10:39:00,
2013-02-12 05:44:00,35.0,34.8,29.71,WNW,288,0.0,1.0,99,0.00,,OVC055,0.00,VWS V14.00,2013-02-12 10:44:00,
2013-02-12 05:49:00,35.1,34.8,29.71,West,279,0.0,2.0,99,0.00,,OVC055,0.00,VWS V14.00,2013-02-12 10:49:00,
2013-02-12 05:54:00,35.2,35.0,29.71,SW,218,1.0,2.0,99,0.00,,OVC055,0.00,VWS V14.00,2013-02-12 10:54:00,
2013-02-12 05:59:00,35.5,35.2,29.71,NW,315,0.0,2.0,99,0.00,,OVC055,0.00,VWS V14.00,2013-02-12 10:59:00,
2013-02-12 06:04:00,35.8,35.5,29.70,West,280,1.0,1.0,99,0.00,,SCT055,0.00,VWS V14.00,2013-02-12 11:04:00,
2013-02-12 06:09:00,35.9,35.7,29.71,WNW,292,0.0,0.0,99,0.00,,SCT055,0.00,VWS V14.00,2013-02-12 11:09:00,
2013-02-12 06:14:00,35.8,35.5,29.71,NNW,338,4.0,4.0,99,0.00,,SCT055,0.00,VWS V14.00,2013-02-12 11:14:00,
2013-02-12 06:19:00,35.8,35.5,29.71,West,271,0.0,1.0,99,0.00,,SCT055,0.00,VWS V14.00,2013-02-12 11:19:00,
2013-02-12 06:24:00,35.5,35.2,29.71,WSW,252,0.0,1.0,99,0.00,,SCT055,0.00,VWS V14.00,2013-02-12 11:24:00,
2013-02-12 06:29:00,35.4,35.2,29.71,West,279,2.0,5.0,99,0.00,,SCT055,0.00,VWS V14.00,2013-02-12 11:29:00,
2013-02-12 06:34:00,35.3,35.0,29.71,West,267,1.0,3.0,99,0.00,,SCT055,0.00,VWS V14.00,2013-02-12 11:34:00,
2013-02-12 06:39:00,35.1,34.8,29.71,SSW,209,2.0,4.0,99,0.00,,SCT055,0.00,VWS V14.00,2013-02-12 11:39:00,
2013-02-12 06:44:00,34.8,34.5,29.72,West,268,1.0,2.0,99,0.00,,SCT055,0.00,VWS V14.00,2013-02-12 11:44:00,
2013-02-12 06:49:00,34.8,34.5,29.71,West,276,2.0,4.0,99,0.00,,SCT055,0.00,VWS V14.00,2013-02-12 11:49:00,
2013-02-12 06:54:00,34.7,34.5,29.72,SW,235,2.0,2.0,99,0.00,,SCT055,0.00,VWS V14.00,2013-02-12 11:54:00,
2013-02-12 06:59:00,34.6,34.3,29.72,West,269,1.0,3.0,99,0.00,,SCT055,0.00,VWS V14.00,2013-02-12 11:59:00,
2013-02-12 07:04:00,34.6,34.3,29.72,SW,219,3.0,3.0,99,0.00,,CLR,0.00,VWS V14.00,2013-02-12 12:04:00,
2013-02-12 07:09:00,34.5,34.2,29.72,SW,228,2.0,3.0,99,0.00,,CLR,0.00,VWS V14.00,2013-02-12 12:09:00,
2013-02-12 07:14:00,34.5,34.2,29.72,West,268,2.0,5.0,99,0.00,,CLR,0.00,VWS V14.00,2013-02-12 12:14:00,
2013-02-12 07:19:00,34.6,34.3,29.73,WSW,241,3.0,3.0,99,0.00,,CLR,0.00,VWS V14.00,2013-02-12 12:19:00,
2013-02-12 07:24:00,34.8,34.5,29.73,SW,226,4.0,4.0,99,0.00,,CLR,0.00,VWS V14.00,2013-02-12 12:24:00,
2013-02-12 07:29:00,35.0,34.8,29.73,SW,215,3.0,3.0,99,0.00,,CLR,0.00,VWS V14.00,2013-02-12 12:29:00,
2013-02-12 07:34:00,35.2,35.0,29.73,WNW,301,1.0,4.0,99,0.00,,CLR,0.00,VWS V14.00,2013-02-12 12:34:00,
2013-02-12 07:39:00,35.2,35.0,29.73,WNW,288,3.0,6.0,99,0.00,,CLR,0.00,VWS V14.00,2013-02-12 12:39:00,
2013-02-12 07:44:00,35.4,35.2,29.73,WNW,287,5.0,5.0,99,0.00,,CLR,0.00,VWS V14.00,2013-02-12 12:44:00,
2013-02-12 07:49:00,35.5,35.2,29.73,West,261,2.0,3.0,99,0.00,,CLR,0.00,VWS V14.00,2013-02-12 12:49:00,
2013-02-12 07:54:00,35.6,35.1,29.74,West,279,0.0,2.0,98,0.00,,CLR,0.00,VWS V14.00,2013-02-12 12:54:00,
2013-02-12 07:59:00,35.8,35.3,29.74,West,275,3.0,7.0,98,0.00,,CLR,0.00,VWS V14.00,2013-02-12 12:59:00,
2013-02-12 08:04:00,36.5,35.2,29.74,West,275,7.0,7.0,95,0.00,,CLR,0.00,VWS V14.00,2013-02-12 13:04:00,
2013-02-12 08:09:00,37.3,34.6,29.75,WSW,245,7.0,9.0,90,0.00,,CLR,0.00,VWS V14.00,2013-02-12 13:09:00,
2013-02-12 08:14:00,38.1,34.0,29.75,West,273,3.0,3.0,85,0.00,,CLR,0.00,VWS V14.00,2013-02-12 13:14:00,
2013-02-12 08:19:00,38.6,33.6,29.75,West,269,5.0,11.0,82,0.00,,CLR,0.00,VWS V14.00,2013-02-12 13:19:00,
2013-02-12 08:24:00,38.7,33.1,29.75,West,271,2.0,5.0,80,0.00,,CLR,0.00,VWS V14.00,2013-02-12 13:24:00,
2013-02-12 08:29:00,38.7,33.7,29.75,West,265,2.0,2.0,82,0.00,,CLR,0.00,VWS V14.00,2013-02-12 13:29:00,
2013-02-12 08:34:00,39.1,33.5,29.76,West,280,1.0,3.0,80,0.00,,CLR,0.00,VWS V14.00,2013-02-12 13:34:00,
2013-02-12 08:39:00,40.0,34.3,29.76,WNW,283,2.0,2.0,80,0.00,,CLR,0.00,VWS V14.00,2013-02-12 13:39:00,
2013-02-12 08:44:00,40.8,32.8,29.76,WSW,256,5.0,14.0,73,0.00,,CLR,0.00,VWS V14.00,2013-02-12 13:44:00,
2013-02-12 08:49:00,41.1,32.1,29.76,WSW,248,7.0,7.0,70,0.00,,CLR,0.00,VWS V14.00,2013-02-12 13:49:00,
2013-02-12 08:54:00,40.9,31.9,29.76,West,271,4.0,4.0,70,0.00,,CLR,0.00,VWS V14.00,2013-02-12 13:54:00,
2013-02-12 08:59:00,40.7,31.3,29.76,West,259,1.0,3.0,69,0.00,,CLR,0.00,VWS V14.00,2013-02-12 13:59:00,
2013-02-12 09:04:00,41.0,32.3,29.76,WSW,257,5.0,5.0,71,0.00,,FEW065,0.00,VWS V14.00,2013-02-12 14:04:00,
2013-02-12 09:09:00,41.7,33.3,29.76,SW,236,7.0,7.0,72,0.00,,FEW065,0.00,VWS V14.00,2013-02-12 14:09:00,
2013-02-12 09:14:00,41.3,33.0,29.76,WSW,245,9.0,10.0,72,0.00,,FEW065,0.00,VWS V14.00,2013-02-12 14:14:00,
2013-02-12 09:19:00,41.1,33.5,29.76,West,269,10.0,10.0,74,0.00,,FEW065,0.00,VWS V14.00,2013-02-12 14:19:00,
2013-02-12 09:24:00,41.0,33.0,29.77,West,263,12.0,16.0,73,0.00,,FEW065,0.00,VWS V14.00,2013-02-12 14:24:00,
2013-02-12 09:29:00,41.0,33.4,29.77,West,266,2.0,6.0,74,0.00,,FEW065,0.00,VWS V14.00,2013-02-12 14:29:00,
2013-02-12 09:34:00,41.1,33.1,29.77,West,275,5.0,6.0,73,0.00,,FEW065,0.00,VWS V14.00,2013-02-12 14:34:00,
2013-02-12 09:39:00,40.7,32.7,29.77,West,275,6.0,13.0,73,0.00,,FEW065,0.00,VWS V14.00,2013-02-12 14:39:00,
2013-02-12 09:44:00,40.4,32.8,29.78,WSW,241,5.0,9.0,74,0.00,,FEW065,0.00,VWS V14.00,2013-02-12 14:44:00,
2013-02-12 09:49:00,40.3,32.7,29.78,SSE,157,3.0,8.0,74,0.00,,FEW065,0.00,VWS V14.00,2013-02-12 14:49:00,
2013-02-12 09:54:00,40.0,32.7,29.78,WSW,257,6.0,12.0,75,0.00,,FEW065,0.00,VWS V14.00,2013-02-12 14:54:00,
2013-02-12 09:59:00,40.1,33.2,29.77,WSW,250,4.0,8.0,76,0.00,,FEW065,0.00,VWS V14.00,2013-02-12 14:59:00,
2013-02-12 10:04:00,40.1,33.2,29.77,WSW,242,3.0,5.0,76,0.00,,FEW065,0.00,VWS V14.00,2013-02-12 15:04:00,
2013-02-12 10:09:00,40.2,33.2,29.77,WSW,257,9.0,10.0,76,0.00,,FEW065,0.00,VWS V14.00,2013-02-12 15:09:00,
2013-02-12 10:14:00,40.4,33.5,29.77,WNW,286,5.0,6.0,76,0.00,,FEW065,0.00,VWS V14.00,2013-02-12 15:14:00,
2013-02-12 10:19:00,40.6,33.3,29.77,West,273,4.0,14.0,75,0.00,,FEW065,0.00,VWS V14.00,2013-02-12 15:19:00,
2013-02-12 10:23:00,40.6,33.3,29.77,West,275,9.0,9.0,75,0.00,,FEW065,0.00,VWS V14.00,2013-02-12 15:23:00,
2013-02-12 10:28:00,40.6,33.3,29.77,West,269,2.0,4.0,75,0.00,,FEW065,0.00,VWS V14.00,2013-02-12 15:28:00,
2013-02-12 10:33:00,40.6,33.6,29.77,WSW,253,4.0,4.0,76,0.00,,FEW065,0.00,VWS V14.00,2013-02-12 15:33:00,
2013-02-12 10:38:00,40.8,33.8,29.77,NW,311,10.0,11.0,76,0.00,,FEW065,0.00,VWS V14.00,2013-02-12 15:38:00,
2013-02-12 10:43:00,40.8,33.5,29.77,WNW,292,6.0,6.0,75,0.00,,FEW065,0.00,VWS V14.00,2013-02-12 15:43:00,
2013-02-12 10:48:00,41.0,33.7,29.77,West,273,4.0,6.0,75,0.00,,OVC060,0.00,VWS V14.00,2013-02-12 15:48:00,
2013-02-12 10:53:00,41.1,33.8,29.78,SW,226,4.0,4.0,75,0.00,,OVC060,0.00,VWS V14.00,2013-02-12 15:53:00,
2013-02-12 10:58:00,41.1,34.1,29.78,NW,322,3.0,3.0,76,0.00,,OVC060,0.00,VWS V14.00,2013-02-12 15:58:00,
2013-02-12 11:03:00,41.1,33.8,29.78,West,265,7.0,8.0,75,0.00,,OVC060,0.00,VWS V14.00,2013-02-12 16:03:00,
2013-02-12 11:08:00,41.0,34.0,29.78,West,264,6.0,6.0,76,0.00,,OVC060,0.00,VWS V14.00,2013-02-12 16:08:00,
2013-02-12 11:13:00,40.6,33.6,29.78,WNW,287,6.0,6.0,76,0.00,,OVC060,0.00,VWS V14.00,2013-02-12 16:13:00,
2013-02-12 11:18:00,40.3,34.0,29.78,SSE,156,14.0,14.0,78,0.00,,OVC060,0.00,VWS V14.00,2013-02-12 16:18:00,
2013-02-12 11:23:00,40.3,34.0,29.78,SW,229,5.0,5.0,78,0.00,,OVC060,0.00,VWS V14.00,2013-02-12 16:23:00,
2013-02-12 11:28:00,40.1,33.8,29.78,West,276,13.0,17.0,78,0.00,,OVC060,0.00,VWS V14.00,2013-02-12 16:28:00,
2013-02-12 11:33:00,40.0,34.0,29.78,WNW,292,8.0,17.0,79,0.00,,OVC060,0.00,VWS V14.00,2013-02-12 16:33:00,
2013-02-12 11:38:00,40.1,34.1,29.77,West,265,9.0,13.0,79,0.00,,OVC060,0.00,VWS V14.00,2013-02-12 16:38:00,
2013-02-12 11:43:00,40.3,34.0,29.77,NW,313,7.0,12.0,78,0.00,,OVC060,0.00,VWS V14.00,2013-02-12 16:43:00,
2013-02-12 11:48:00,40.4,34.1,29.76,NW,310,3.0,15.0,78,0.00,,OVC055,0.00,VWS V14.00,2013-02-12 16:48:00,
2013-02-12 11:53:00,40.8,34.2,29.77,West,277,3.0,11.0,77,0.00,,OVC055,0.00,VWS V14.00,2013-02-12 16:53:00,
2013-02-12 11:58:00,41.1,34.1,29.77,NE,36,5.0,14.0,76,0.00,,OVC055,0.00,VWS V14.00,2013-02-12 16:58:00,
2013-02-12 12:03:00,42.4,33.7,29.77,SSE,157,1.0,7.0,71,0.00,,OVC055,0.00,VWS V14.00,2013-02-12 17:03:00,
2013-02-12 12:08:00,43.1,32.2,29.77,West,264,1.0,4.0,65,0.00,,OVC055,0.00,VWS V14.00,2013-02-12 17:08:00,
2013-02-12 12:13:00,43.5,31.4,29.77,SW,217,3.0,10.0,62,0.00,,OVC055,0.00,VWS V14.00,2013-02-12 17:13:00,
2013-02-12 12:18:00,43.8,31.2,29.77,NNW,346,0.0,7.0,61,0.00,,OVC055,0.00,VWS V14.00,2013-02-12 17:18:00,
2013-02-12 12:23:00,44.5,31.1,29.77,WNW,303,6.0,14.0,59,0.00,,OVC055,0.00,VWS V14.00,2013-02-12 17:23:00,
2013-02-12 12:28:00,44.6,30.8,29.77,NNE,12,6.0,12.0,58,0.00,,OVC055,0.00,VWS V14.00,2013-02-12 17:28:00,
2013-02-12 12:33:00,44.3,30.9,29.77,NNW,348,2.0,11.0,59,0.00,,OVC055,0.00,VWS V14.00,2013-02-12 17:33:00,
2013-02-12 12:38:00,44.4,31.0,29.78,NW,317,2.0,6.0,59,0.00,,OVC055,0.00,VWS V14.00,2013-02-12 17:38:00,
2013-02-12 12:43:00,44.5,30.2,29.77,WSW,244,4.0,6.0,57,0.00,,OVC055,0.00,VWS V14.00,2013-02-12 17:43:00,
2013-02-12 12:48:00,45.4,31.1,29.78,West,269,6.0,8.0,57,0.00,,OVC050,0.00,VWS V14.00,2013-02-12 17:48:00,
2013-02-12 12:53:00,46.2,31.4,29.78,NW,313,1.0,6.0,56,0.00,,OVC050,0.00,VWS V14.00,2013-02-12 17:53:00,
2013-02-12 12:58:00,46.2,30.5,29.78,WSW,244,7.0,11.0,54,0.00,,OVC050,0.00,VWS V14.00,2013-02-12 17:58:00,
2013-02-12 13:03:00,46.0,30.8,29.78,West,261,7.0,10.0,55,0.00,,OVC050,0.00,VWS V14.00,2013-02-12 18:03:00,
2013-02-12 13:08:00,45.5,29.8,29.78,WNW,292,7.0,13.0,54,0.00,,OVC050,0.00,VWS V14.00,2013-02-12 18:08:00,
2013-02-12 13:13:00,45.2,30.0,29.78,NW,307,5.0,10.0,55,0.00,,OVC050,0.00,VWS V14.00,2013-02-12 18:13:00,
2013-02-12 13:18:00,45.0,29.8,29.78,NW,313,3.0,11.0,55,0.00,,OVC050,0.00,VWS V14.00,2013-02-12 18:18:00,
2013-02-12 13:23:00,44.9,29.7,29.78,SW,236,7.0,11.0,55,0.00,,OVC050,0.00,VWS V14.00,2013-02-12 18:23:00,
2013-02-12 13:28:00,44.7,30.0,29.78,WSW,253,1.0,5.0,56,0.00,,OVC050,0.00,VWS V14.00,2013-02-12 18:28:00,
2013-02-12 13:33:00,44.8,29.2,29.78,WNW,292,1.0,11.0,54,0.00,,OVC050,0.00,VWS V14.00,2013-02-12 18:33:00,
2013-02-12 13:38:00,45.1,30.4,29.78,WNW,302,4.0,6.0,56,0.00,,OVC050,0.00,VWS V14.00,2013-02-12 18:38:00,
2013-02-12 13:43:00,45.0,30.3,29.78,West,259,5.0,10.0,56,0.00,,OVC050,0.00,VWS V14.00,2013-02-12 18:43:00,
2013-02-12 13:48:00,45.1,29.9,29.78,WSW,257,4.0,6.0,55,0.00,,BKN050,0.00,VWS V14.00,2013-02-12 18:48:00,
2013-02-12 13:53:00,45.3,29.6,29.78,WNW,301,3.0,6.0,54,0.00,,BKN050,0.00,VWS V14.00,2013-02-12 18:53:00,
2013-02-12 13:58:00,45.2,29.6,29.78,WNW,294,6.0,11.0,54,0.00,,BKN050,0.00,VWS V14.00,2013-02-12 18:58:00,
2013-02-12 14:03:00,45.4,30.2,29.79,NNE,24,4.0,7.0,55,0.00,,BKN050,0.00,VWS V14.00,2013-02-12 19:03:00,
2013-02-12 14:08:00,45.5,29.8,29.79,South,185,3.0,17.0,54,0.00,,BKN050,0.00,VWS V14.00,2013-02-12 19:08:00,
2013-02-12 14:13:00,45.3,29.6,29.79,West,272,4.0,12.0,54,0.00,,BKN050,0.00,VWS V14.00,2013-02-12 19:13:00,
2013-02-12 14:18:00,45.1,29.5,29.79,WSW,256,3.0,17.0,54,0.00,,BKN050,0.00,VWS V14.00,2013-02-12 19:18:00,
2013-02-12 14:23:00,45.0,29.4,29.79,South,173,2.0,9.0,54,0.00,,BKN050,0.00,VWS V14.00,2013-02-12 19:23:00,
2013-02-12 14:28:00,44.9,30.2,29.79,SSE,149,1.0,6.0,56,0.00,,BKN050,0.00,VWS V14.00,2013-02-12 19:28:00,
2013-02-12 14:33:00,44.8,29.6,29.79,NW,318,2.0,13.0,55,0.00,,BKN050,0.00,VWS V14.00,2013-02-12 19:33:00,
2013-02-12 14:38:00,45.2,29.6,29.79,NW,313,5.0,11.0,54,0.00,,BKN050,0.00,VWS V14.00,2013-02-12 19:38:00,
2013-02-12 14:43:00,45.9,30.2,29.79,NW,308,3.0,7.0,54,0.00,,BKN050,0.00,VWS V14.00,2013-02-12 19:43:00,
2013-02-12 14:48:00,46.1,30.4,29.79,WSW,250,10.0,11.0,54,0.00,,BKN055,0.00,VWS V14.00,2013-02-12 19:48:00,
2013-02-12 14:53:00,46.1,29.9,29.79,NNW,330,4.0,13.0,53,0.00,,BKN055,0.00,VWS V14.00,2013-02-12 19:53:00,
2013-02-12 14:58:00,46.0,29.8,29.79,WNW,294,5.0,7.0,53,0.00,,BKN055,0.00,VWS V14.00,2013-02-12 19:58:00,
2013-02-12 15:03:00,45.2,29.6,29.79,NW,310,2.0,9.0,54,0.00,,BKN060,0.00,VWS V14.00,2013-02-12 20:03:00,
2013-02-12 15:08:00,45.2,29.6,29.79,SSW,192,0.0,5.0,54,0.00,,BKN060,0.00,VWS V14.00,2013-02-12 20:08:00,
2013-02-12 15:13:00,45.5,29.8,29.79,WNW,303,3.0,10.0,54,0.00,,BKN060,0.00,VWS V14.00,2013-02-12 20:13:00,
2013-02-12 15:18:00,45.5,29.8,29.79,WNW,294,0.0,8.0,54,0.00,,BKN060,0.00,VWS V14.00,2013-02-12 20:18:00,
2013-02-12 15:23:00,45.6,29.9,29.79,ESE,123,1.0,5.0,54,0.00,,BKN060,0.00,VWS V14.00,2013-02-12 20:23:00,
2013-02-12 15:28:00,45.4,29.7,29.79,West,273,3.0,8.0,54,0.00,,BKN060,0.00,VWS V14.00,2013-02-12 20:28:00,
2013-02-12 15:33:00,45.1,29.5,29.79,West,271,4.0,9.0,54,0.00,,BKN060,0.00,VWS V14.00,2013-02-12 20:33:00,
2013-02-12 15:38:00,44.5,29.4,29.79,SSW,205,1.0,12.0,55,0.00,,BKN060,0.00,VWS V14.00,2013-02-12 20:38:00,
2013-02-12 15:43:00,44.4,29.7,29.79,SW,223,3.0,12.0,56,0.00,,BKN060,0.00,VWS V14.00,2013-02-12 20:43:00,
2013-02-12 15:48:00,44.4,29.7,29.79,WNW,286,2.0,7.0,56,0.00,,BKN060,0.00,VWS V14.00,2013-02-12 20:48:00,
2013-02-12 15:53:00,44.2,29.5,29.79,West,277,5.0,8.0,56,0.00,,BKN060,0.00,VWS V14.00,2013-02-12 20:53:00,
2013-02-12 15:58:00,44.3,30.0,29.79,WNW,294,0.0,6.0,57,0.00,,BKN060,0.00,VWS V14.00,2013-02-12 20:58:00,
2013-02-12 16:03:00,44.6,29.5,29.79,West,271,5.0,10.0,55,0.00,,CLR,0.00,VWS V14.00,2013-02-12 21:03:00,
2013-02-12 16:08:00,44.7,30.0,29.78,NW,324,1.0,7.0,56,0.00,,CLR,0.00,VWS V14.00,2013-02-12 21:08:00,
2013-02-12 16:13:00,44.5,30.2,29.78,NW,312,3.0,9.0,57,0.00,,CLR,0.00,VWS V14.00,2013-02-12 21:13:00,
2013-02-12 16:18:00,44.0,29.3,29.77,NNW,327,6.0,11.0,56,0.00,,CLR,0.00,VWS V14.00,2013-02-12 21:18:00,
2013-02-12 16:23:00,43.6,29.4,29.78,NW,308,4.0,6.0,57,0.00,,CLR,0.00,VWS V14.00,2013-02-12 21:23:00,
2013-02-12 16:28:00,43.3,29.5,29.78,SE,126,1.0,7.0,58,0.00,,CLR,0.00,VWS V14.00,2013-02-12 21:28:00,
2013-02-12 16:33:00,42.8,29.1,29.79,SSW,209,4.0,5.0,58,0.00,,CLR,0.00,VWS V14.00,2013-02-12 21:33:00,
2013-02-12 16:38:00,42.5,29.2,29.78,NE,49,1.0,9.0,59,0.00,,CLR,0.00,VWS V14.00,2013-02-12 21:38:00,
2013-02-12 16:43:00,42.2,28.9,29.78,SW,223,3.0,5.0,59,0.00,,CLR,0.00,VWS V14.00,2013-02-12 21:43:00,
2013-02-12 16:48:00,41.9,29.0,29.79,NW,304,2.0,4.0,60,0.00,,CLR,0.00,VWS V14.00,2013-02-12 21:48:00,
2013-02-12 16:53:00,41.8,29.0,29.78,WNW,299,1.0,9.0,60,0.00,,CLR,0.00,VWS V14.00,2013-02-12 21:53:00,
2013-02-12 16:58:00,41.7,29.3,29.78,West,271,0.0,6.0,61,0.00,,CLR,0.00,VWS V14.00,2013-02-12 21:58:00,
2013-02-12 17:03:00,41.6,29.2,29.78,NW,306,0.0,3.0,61,0.00,,CLR,0.00,VWS V14.00,2013-02-12 22:03:00,
2013-02-12 17:08:00,41.4,29.0,29.77,NNW,334,3.0,5.0,61,0.00,,CLR,0.00,VWS V14.00,2013-02-12 22:08:00,
2013-02-12 17:13:00,41.3,28.9,29.76,NNE,24,3.0,6.0,61,0.00,,CLR,0.00,VWS V14.00,2013-02-12 22:13:00,
2013-02-12 17:18:00,41.1,29.1,29.77,NNW,331,2.0,4.0,62,0.00,,CLR,0.00,VWS V14.00,2013-02-12 22:18:00,
2013-02-12 17:23:00,40.8,28.8,29.77,WNW,290,1.0,4.0,62,0.00,,CLR,0.00,VWS V14.00,2013-02-12 22:23:00,
2013-02-12 17:28:00,40.4,28.8,29.78,NE,35,1.0,3.0,63,0.00,,CLR,0.00,VWS V14.00,2013-02-12 22:28:00,
2013-02-12 17:33:00,40.3,28.7,29.79,West,273,1.0,5.0,63,0.00,,CLR,0.00,VWS V14.00,2013-02-12 22:33:00,
2013-02-12 17:37:00,40.2,28.6,29.80,NNW,327,0.0,2.0,63,0.00,,CLR,0.00,VWS V14.00,2013-02-12 22:37:00,
2013-02-12 17:42:00,40.2,28.6,29.80,West,277,1.0,4.0,63,0.00,,CLR,0.00,VWS V14.00,2013-02-12 22:42:00,
2013-02-12 17:47:00,39.9,28.7,29.81,West,280,3.0,4.0,64,0.00,,CLR,0.00,VWS V14.00,2013-02-12 22:47:00,
2013-02-12 17:52:00,39.9,28.7,29.81,SW,236,2.0,6.0,64,0.00,,CLR,0.00,VWS V14.00,2013-02-12 22:52:00,
2013-02-12 17:58:00,40.0,28.4,29.82,WSW,253,1.0,6.0,63,0.00,,CLR,0.00,VWS V14.00,2013-02-12 22:58:00,
2013-02-12 18:03:00,40.0,28.8,29.82,WNW,287,1.0,6.0,64,0.00,,CLR,0.00,VWS V14.00,2013-02-12 23:03:00,
2013-02-12 18:07:00,39.8,28.6,29.82,West,276,1.0,5.0,64,0.00,,CLR,0.00,VWS V14.00,2013-02-12 23:07:00,
2013-02-12 18:12:00,39.3,28.5,29.82,West,277,1.0,3.0,65,0.00,,CLR,0.00,VWS V14.00,2013-02-12 23:12:00,
2013-02-12 18:17:00,39.2,28.4,29.83,NW,313,4.0,7.0,65,0.00,,CLR,0.00,VWS V14.00,2013-02-12 23:17:00,
2013-02-12 18:22:00,39.1,28.7,29.84,SSW,199,0.0,3.0,66,0.00,,CLR,0.00,VWS V14.00,2013-02-12 23:22:00,
2013-02-12 18:27:00,38.8,28.8,29.85,SW,215,2.0,6.0,67,0.00,,CLR,0.00,VWS V14.00,2013-02-12 23:27:00,
2013-02-12 18:32:00,38.4,28.8,29.85,WNW,298,2.0,4.0,68,0.00,,CLR,0.00,VWS V14.00,2013-02-12 23:32:00,
2013-02-12 18:37:00,38.4,29.1,29.86,WNW,288,3.0,7.0,69,0.00,,CLR,0.00,VWS V14.00,2013-02-12 23:37:00,
2013-02-12 18:42:00,38.3,29.0,29.88,WNW,288,10.0,12.0,69,0.00,,CLR,0.00,VWS V14.00,2013-02-12 23:42:00,
2013-02-12 18:47:00,38.3,29.4,29.90,NW,310,2.0,13.0,70,0.00,,CLR,0.00,VWS V14.00,2013-02-12 23:47:00,
2013-02-12 18:52:00,38.5,29.9,29.92,West,268,10.0,11.0,71,0.00,,CLR,0.00,VWS V14.00,2013-02-12 23:52:00,
2013-02-12 18:57:00,38.8,29.9,29.91,West,265,4.0,11.0,70,0.00,,CLR,0.00,VWS V14.00,2013-02-12 23:57:00,
2013-02-12 19:02:00,38.9,30.3,29.91,WSW,255,3.0,11.0,71,0.00,,BKN047,0.00,VWS V14.00,2013-02-13 00:02:00,
2013-02-12 19:07:00,38.7,30.1,29.91,WNW,283,2.0,9.0,71,0.00,,BKN047,0.00,VWS V14.00,2013-02-13 00:07:00,
2013-02-12 19:12:00,38.7,29.8,29.91,NNE,12,7.0,10.0,70,0.00,,BKN047,0.00,VWS V14.00,2013-02-13 00:12:00,
2013-02-12 19:17:00,38.7,29.4,29.91,WSW,254,3.0,7.0,69,0.00,,BKN047,0.00,VWS V14.00,2013-02-13 00:17:00,
2013-02-12 19:22:00,38.7,29.4,29.90,SW,219,4.0,7.0,69,0.00,,BKN047,0.00,VWS V14.00,2013-02-13 00:22:00,
2013-02-12 19:27:00,38.8,29.5,29.90,WNW,287,3.0,11.0,69,0.00,,BKN047,0.00,VWS V14.00,2013-02-13 00:27:00,
2013-02-12 19:32:00,38.7,29.1,29.90,NNW,334,1.0,6.0,68,0.00,,BKN047,0.00,VWS V14.00,2013-02-13 00:32:00,
2013-02-12 19:37:00,38.7,28.7,29.90,West,277,6.0,14.0,67,0.00,,BKN047,0.00,VWS V14.00,2013-02-13 00:37:00,
2013-02-12 19:42:00,38.8,28.4,29.90,SSE,148,5.0,11.0,66,0.00,,BKN047,0.00,VWS V14.00,2013-02-13 00:42:00,
2013-02-12 19:47:00,39.0,28.2,29.90,West,280,5.0,12.0,65,0.00,,BKN047,0.00,VWS V14.00,2013-02-13 00:47:00,
2013-02-12 19:52:00,38.8,28.4,29.89,West,264,4.0,7.0,66,0.00,,BKN047,0.00,VWS V14.00,2013-02-13 00:52:00,
2013-02-12 19:57:00,38.5,28.5,29.89,West,269,3.0,6.0,67,0.00,,BKN047,0.00,VWS V14.00,2013-02-13 00:57:00,
2013-02-12 20:02:00,38.3,28.3,29.90,WSW,240,5.0,7.0,67,0.00,,BKN047,0.00,VWS V14.00,2013-02-13 01:02:00,
2013-02-12 20:07:00,38.1,28.1,29.91,WNW,298,2.0,9.0,67,0.00,,BKN047,0.00,VWS V14.00,2013-02-13 01:07:00,
2013-02-12 20:12:00,38.0,28.0,29.91,WSW,241,1.0,7.0,67,0.00,,BKN047,0.00,VWS V14.00,2013-02-13 01:12:00,
2013-02-12 20:17:00,38.0,28.0,29.91,WNW,303,4.0,6.0,67,0.00,,BKN047,0.00,VWS V14.00,2013-02-13 01:17:00,
2013-02-12 20:22:00,37.6,28.0,29.90,NW,311,1.0,6.0,68,0.00,,BKN047,0.00,VWS V14.00,2013-02-13 01:22:00,
2013-02-12 20:27:00,37.4,27.8,29.90,NW,315,1.0,5.0,68,0.00,,BKN047,0.00,VWS V14.00,2013-02-13 01:27:00,
2013-02-12 20:32:00,37.3,27.7,29.90,WSW,242,1.0,4.0,68,0.00,,BKN047,0.00,VWS V14.00,2013-02-13 01:32:00,
2013-02-12 20:37:00,37.4,27.8,29.90,NNW,333,1.0,7.0,68,0.00,,BKN047,0.00,VWS V14.00,2013-02-13 01:37:00,
2013-02-12 20:42:00,37.2,27.6,29.90,WNW,303,3.0,4.0,68,0.00,,BKN047,0.00,VWS V14.00,2013-02-13 01:42:00,
2013-02-12 20:47:00,37.1,27.5,29.89,NW,310,3.0,5.0,68,0.00,,OVC047,0.00,VWS V14.00,2013-02-13 01:47:00,
2013-02-12 20:52:00,36.9,27.3,29.89,SE,139,0.0,2.0,68,0.00,,OVC047,0.00,VWS V14.00,2013-02-13 01:52:00,
2013-02-12 20:57:00,36.6,27.4,29.89,WSW,256,3.0,4.0,69,0.00,,OVC047,0.00,VWS V14.00,2013-02-13 01:57:00,
2013-02-12 21:02:00,36.6,27.4,29.89,WSW,252,3.0,5.0,69,0.00,,OVC047,0.00,VWS V14.00,2013-02-13 02:02:00,
2013-02-12 21:07:00,36.5,27.3,29.88,SW,222,0.0,3.0,69,0.00,,OVC047,0.00,VWS V14.00,2013-02-13 02:07:00,
2013-02-12 21:12:00,36.1,27.3,29.88,West,259,1.0,3.0,70,0.00,,OVC047,0.00,VWS V14.00,2013-02-13 02:12:00,
2013-02-12 21:17:00,36.1,27.3,29.88,SSE,152,0.0,4.0,70,0.00,,OVC047,0.00,VWS V14.00,2013-02-13 02:17:00,
2013-02-12 21:22:00,35.8,27.0,29.88,West,279,1.0,2.0,70,0.00,,OVC047,0.00,VWS V14.00,2013-02-13 02:22:00,
2013-02-12 21:27:00,35.6,27.1,29.88,NW,306,1.0,2.0,71,0.00,,OVC047,0.00,VWS V14.00,2013-02-13 02:27:00,
2013-02-12 21:32:00,35.3,27.2,29.88,WNW,298,1.0,1.0,72,0.00,,OVC047,0.00,VWS V14.00,2013-02-13 02:32:00,
2013-02-12 21:37:00,35.0,26.9,29.87,WNW,299,1.0,2.0,72,0.00,,OVC047,0.00,VWS V14.00,2013-02-13 02:37:00,
2013-02-12 21:42:00,34.8,26.7,29.87,WNW,289,0.0,0.0,72,0.00,,OVC047,0.00,VWS V14.00,2013-02-13 02:42:00,
2013-02-12 21:47:00,34.5,26.8,29.87,NW,318,0.0,1.0,73,0.00,,BKN047,0.00,VWS V14.00,2013-02-13 02:47:00,
2013-02-12 21:52:00,34.3,26.6,29.87,SSW,199,2.0,2.0,73,0.00,,BKN047,0.00,VWS V14.00,2013-02-13 02:52:00,
2013-02-12 21:57:00,34.0,26.3,29.86,SW,218,1.0,1.0,73,0.00,,BKN047,0.00,VWS V14.00,2013-02-13 02:57:00,
2013-02-12 22:02:00,33.6,26.2,29.86,SW,218,0.0,0.0,74,0.00,,CLR,0.00,VWS V14.00,2013-02-13 03:02:00,
2013-02-12 22:07:00,33.4,26.3,29.86,SW,218,0.0,0.0,75,0.00,,CLR,0.00,VWS V14.00,2013-02-13 03:07:00,
2013-02-12 22:12:00,33.1,26.0,29.85,SW,218,0.0,0.0,75,0.00,,CLR,0.00,VWS V14.00,2013-02-13 03:12:00,
2013-02-12 22:17:00,32.6,25.9,29.85,SW,218,0.0,0.0,76,0.00,,CLR,0.00,VWS V14.00,2013-02-13 03:17:00,
2013-02-12 22:22:00,32.3,25.6,29.85,SW,218,0.0,0.0,76,0.00,,CLR,0.00,VWS V14.00,2013-02-13 03:22:00,
2013-02-12 22:27:00,31.9,25.5,29.85,SW,218,0.0,0.0,77,0.00,,CLR,0.00,VWS V14.00,2013-02-13 03:27:00,
2013-02-12 22:32:00,31.8,25.7,29.85,SW,218,0.0,0.0,78,0.00,,CLR,0.00,VWS V14.00,2013-02-13 03:32:00,
2013-02-12 22:37:00,31.6,25.5,29.86,West,260,0.0,0.0,78,0.00,,CLR,0.00,VWS V14.00,2013-02-13 03:37:00,
2013-02-12 22:42:00,31.2,25.5,29.86,SW,226,0.0,0.0,79,0.00,,CLR,0.00,VWS V14.00,2013-02-13 03:42:00,
2013-02-12 22:47:00,31.2,25.8,29.86,SW,226,0.0,0.0,80,0.00,,CLR,0.00,VWS V14.00,2013-02-13 03:47:00,
2013-02-12 22:52:00,31.0,25.6,29.86,SW,225,0.0,0.0,80,0.00,,CLR,0.00,VWS V14.00,2013-02-13 03:52:00,
2013-02-12 22:57:00,30.8,25.4,29.85,SW,227,0.0,0.0,80,0.00,,CLR,0.00,VWS V14.00,2013-02-13 03:57:00,
2013-02-12 23:02:00,30.9,25.8,29.85,SW,226,0.0,0.0,81,0.00,,CLR,0.00,VWS V14.00,2013-02-13 04:02:00,
2013-02-12 23:07:00,30.8,25.7,29.85,NW,306,0.0,0.0,81,0.00,,CLR,0.00,VWS V14.00,2013-02-13 04:07:00,
2013-02-12 23:12:00,30.7,25.6,29.85,NW,306,0.0,0.0,81,0.00,,CLR,0.00,VWS V14.00,2013-02-13 04:12:00,
2013-02-12 23:17:00,30.6,25.5,29.86,WSW,240,0.0,0.0,81,0.00,,CLR,0.00,VWS V14.00,2013-02-13 04:17:00,
2013-02-12 23:22:00,30.4,25.6,29.86,WSW,240,0.0,0.0,82,0.00,,CLR,0.00,VWS V14.00,2013-02-13 04:22:00,
2013-02-12 23:27:00,30.1,25.3,29.87,SW,233,0.0,0.0,82,0.00,,CLR,0.00,VWS V14.00,2013-02-13 04:27:00,
2013-02-12 23:32:00,29.7,25.2,29.86,NNW,343,2.0,2.0,83,0.00,,CLR,0.00,VWS V14.00,2013-02-13 04:32:00,
2013-02-12 23:37:00,29.4,25.2,29.86,NNW,338,0.0,0.0,84,0.00,,CLR,0.00,VWS V14.00,2013-02-13 04:37:00,
2013-02-12 23:42:00,29.0,24.8,29.86,NNW,338,0.0,0.0,84,0.00,,CLR,0.00,VWS V14.00,2013-02-13 04:42:00,
2013-02-12 23:47:00,29.0,25.1,29.86,NNW,338,0.0,0.0,85,0.00,,CLR,0.00,VWS V14.00,2013-02-13 04:47:00,
2013-02-12 23:52:00,29.1,25.2,29.87,South,190,2.0,2.0,85,0.00,,CLR,0.00,VWS V14.00,2013-02-13 04:52:00,
2013-02-12 23:57:00,29.5,25.6,29.87,SSW,196,1.0,1.0,85,0.00,,CLR,0.00,VWS V14.00,2013-02-13 04:57:00,